Precipitable_Water
0.52 0.54 0.54 0.53 0.52 0.51 0.49 0.48 0.48 0.46 0.45 0.45 0.43 0.43 0.44 0.47 0.49 0.50 0.50 0.51 0.51 0.49 0.48 0.46 0.44 0.42 0.42 0.42 0.43 0.42 0.42 0.43 0.43 0.45 0.45 0.45 0.43 0.43 0.42 0.42 0.41 0.41
0.54 0.56 0.56 0.55 0.54 0.55 0.54 0.53 0.51 0.49 0.48 0.48 0.47 0.46 0.49 0.50 0.50 0.50 0.49 0.49 0.49 0.47 0.47 0.45 0.44 0.42 0.42 0.43 0.43 0.43 0.42 0.42 0.39 0.44 0.42 0.42 0.43 0.43 0.43 0.44 0.43 0.44
0.59 0.58 0.57 0.55 0.53 0.54 0.54 0.55 0.54 0.52 0.51 0.51 0.51 0.51 0.50 0.52 0.51 0.51 0.50 0.49 0.46 0.45 0.45 0.44 0.42 0.42 0.43 0.44 0.45 0.44 0.43 0.41 0.40 0.41 0.41 0.40 0.41 0.41 0.42 0.43 0.43 0.43
0.63 0.62 0.60 0.58 0.57 0.57 0.58 0.56 0.56 0.54 0.54 0.53 0.52 0.53 0.53 0.54 0.53 0.51 0.51 0.49 0.46 0.45 0.44 0.43 0.41 0.42 0.43 0.44 0.45 0.44 0.43 0.42 0.42 0.43 0.41 0.41 0.41 0.41 0.41 0.42 0.42 0.41
0.64 0.64 0.63 0.61 0.61 0.61 0.61 0.59 0.56 0.55 0.54 0.55 0.56 0.56 0.55 0.55 0.54 0.52 0.50 0.47 0.46 0.45 0.44 0.42 0.43 0.42 0.44 0.44 0.45 0.43 0.43 0.41 0.41 0.42 0.41 0.40 0.41 0.41 0.41 0.41 0.40 0.40
0.69 0.69 0.67 0.64 0.63 0.63 0.62 0.60 0.59 0.58 0.57 0.57 0.58 0.59 0.57 0.57 0.56 0.54 0.50 0.46 0.47 0.46 0.44 0.43 0.42 0.43 0.44 0.45 0.45 0.43 0.41 0.39 0.39 0.39 0.39 0.38 0.39 0.41 0.41 0.40 0.39 0.39
0.69 0.69 0.68 0.67 0.66 0.66 0.63 0.62 0.62 0.61 0.60 0.62 0.63 0.60 0.60 0.58 0.57 0.56 0.51 0.48 0.48 0.47 0.45 0.44 0.43 0.44 0.46 0.46 0.44 0.41 0.40 0.39 0.39 0.39 0.37 0.37 0.37 0.37 0.38 0.38 0.38 0.37
0.71 0.71 0.70 0.68 0.66 0.66 0.63 0.63 0.64 0.64 0.64 0.64 0.62 0.62 0.62 0.60 0.59 0.57 0.53 0.51 0.49 0.47 0.46 0.45 0.46 0.47 0.47 0.46 0.43 0.40 0.39 0.40 0.39 0.39 0.38 0.37 0.37 0.35 0.35 0.36 0.37 0.36
0.75 0.73 0.72 0.69 0.67 0.66 0.63 0.63 0.64 0.65 0.66 0.63 0.63 0.62 0.63 0.62 0.60 0.57 0.54 0.52 0.50 0.48 0.46 0.46 0.48 0.48 0.48 0.45 0.42 0.40 0.38 0.38 0.39 0.38 0.37 0.36 0.35 0.36 0.36 0.37 0.36 0.35
0.78 0.75 0.73 0.70 0.67 0.66 0.64 0.64 0.65 0.66 0.67 0.65 0.64 0.64 0.62 0.62 0.61 0.57 0.54 0.52 0.50 0.47 0.47 0.48 0.49 0.48 0.46 0.44 0.42 0.40 0.38 0.37 0.37 0.38 0.38 0.38 0.37 0.37 0.37 0.37 0.37 0.36
0.82 0.79 0.73 0.71 0.68 0.67 0.66 0.66 0.67 0.67 0.67 0.65 0.65 0.63 0.63 0.62 0.59 0.57 0.55 0.52 0.48 0.46 0.47 0.48 0.47 0.46 0.44 0.43 0.41 0.40 0.38 0.38 0.38 0.38 0.37 0.37 0.35 0.34 0.33 0.32 0.32 0.34
0.83 0.81 0.77 0.74 0.73 0.71 0.70 0.70 0.69 0.67 0.66 0.66 0.66 0.64 0.63 0.61 0.59 0.58 0.55 0.51 0.49 0.49 0.48 0.47 0.47 0.46 0.44 0.41 0.39 0.39 0.38 0.38 0.37 0.36 0.35 0.34 0.33 0.32 0.31 0.30 0.29 0.28
0.84 0.80 0.78 0.78 0.78 0.76 0.76 0.75 0.72 0.69 0.68 0.67 0.68 0.66 0.63 0.61 0.60 0.57 0.55 0.52 0.51 0.50 0.48 0.47 0.46 0.45 0.43 0.41 0.40 0.39 0.38 0.36 0.35 0.34 0.33 0.33 0.32 0.31 0.30 0.29 0.29 0.29
0.88 0.84 0.82 0.82 0.82 0.81 0.79 0.78 0.76 0.73 0.71 0.70 0.69 0.66 0.65 0.63 0.60 0.56 0.55 0.53 0.50 0.49 0.49 0.48 0.46 0.44 0.42 0.41 0.40 0.39 0.37 0.35 0.34 0.33 0.32 0.31 0.31 0.31 0.30 0.29 0.30 0.31
0.89 0.90 0.86 0.86 0.86 0.84 0.82 0.81 0.78 0.75 0.73 0.71 0.70 0.68 0.66 0.64 0.61 0.58 0.54 0.51 0.50 0.49 0.48 0.48 0.45 0.43 0.42 0.40 0.39 0.37 0.37 0.35 0.34 0.33 0.32 0.31 0.30 0.30 0.29 0.29 0.30 0.31
0.92 0.94 0.95 0.89 0.87 0.84 0.83 0.83 0.80 0.77 0.74 0.72 0.70 0.68 0.65 0.61 0.58 0.55 0.53 0.51 0.49 0.49 0.49 0.47 0.45 0.43 0.42 0.40 0.39 0.38 0.36 0.35 0.34 0.33 0.32 0.31 0.30 0.28 0.28 0.29 0.30 0.32
0.92 0.98 0.97 0.95 0.97 0.91 0.87 0.83 0.78 0.76 0.73 0.71 0.70 0.67 0.62 0.59 0.56 0.53 0.52 0.51 0.51 0.49 0.47 0.45 0.44 0.43 0.42 0.40 0.38 0.38 0.37 0.35 0.34 0.33 0.32 0.31 0.29 0.28 0.27 0.29 0.31 0.33
0.71 0.74 0.94 0.96 0.94 0.93 0.91 0.86 0.80 0.76 0.72 0.69 0.67 0.63 0.60 0.58 0.55 0.54 0.53 0.52 0.51 0.49 0.47 0.45 0.44 0.43 0.41 0.39 0.37 0.36 0.36 0.35 0.34 0.31 0.30 0.28 0.28 0.28 0.29 0.30 0.31 0.32
0.69 0.67 0.69 0.90 0.94 0.94 0.93 0.88 0.82 0.77 0.71 0.67 0.62 0.60 0.59 0.56 0.55 0.55 0.53 0.51 0.50 0.48 0.47 0.46 0.43 0.40 0.37 0.35 0.34 0.33 0.32 0.31 0.30 0.28 0.27 0.27 0.28 0.29 0.29 0.30 0.31 0.31
0.66 0.66 0.65 0.72 0.91 0.93 0.93 0.88 0.85 0.78 0.73 0.66 0.61 0.58 0.55 0.54 0.54 0.53 0.52 0.51 0.50 0.48 0.45 0.42 0.39 0.37 0.35 0.33 0.31 0.29 0.28 0.27 0.27 0.28 0.28 0.28 0.29 0.29 0.29 0.30 0.31 0.31
0.64 0.66 0.66 0.70 0.80 0.86 0.89 0.86 0.84 0.77 0.71 0.67 0.61 0.58 0.55 0.53 0.53 0.52 0.52 0.51 0.48 0.45 0.41 0.39 0.38 0.35 0.32 0.29 0.27 0.26 0.26 0.27 0.28 0.28 0.28 0.29 0.29 0.30 0.30 0.30 0.31 0.32
0.63 0.65 0.64 0.66 0.68 0.74 0.80 0.80 0.79 0.74 0.68 0.65 0.62 0.59 0.56 0.55 0.54 0.52 0.50 0.48 0.46 0.43 0.39 0.36 0.34 0.31 0.28 0.26 0.25 0.25 0.26 0.27 0.28 0.28 0.28 0.28 0.29 0.30 0.30 0.31 0.32 0.33
0.62 0.65 0.66 0.67 0.67 0.67 0.69 0.70 0.66 0.61 0.61 0.60 0.60 0.58 0.55 0.53 0.52 0.50 0.48 0.45 0.43 0.39 0.36 0.33 0.30 0.27 0.26 0.25 0.25 0.25 0.27 0.27 0.28 0.28 0.28 0.28 0.28 0.29 0.30 0.31 0.32 0.33
0.63 0.68 0.71 0.72 0.71 0.72 0.69 0.65 0.62 0.60 0.58 0.57 0.56 0.55 0.53 0.51 0.50 0.47 0.44 0.43 0.40 0.36 0.34 0.30 0.27 0.26 0.26 0.26 0.25 0.26 0.27 0.28 0.28 0.28 0.27 0.27 0.28 0.29 0.30 0.31 0.32 0.32
0.65 0.68 0.70 0.73 0.71 0.68 0.66 0.64 0.60 0.59 0.58 0.56 0.53 0.51 0.49 0.50 0.49 0.45 0.43 0.42 0.39 0.34 0.32 0.29 0.27 0.27 0.27 0.26 0.26 0.27 0.28 0.29 0.29 0.28 0.27 0.27 0.27 0.28 0.30 0.30 0.31 0.32
0.64 0.66 0.67 0.68 0.65 0.64 0.64 0.62 0.60 0.58 0.54 0.51 0.49 0.47 0.45 0.45 0.46 0.45 0.42 0.37 0.34 0.31 0.30 0.29 0.27 0.27 0.27 0.27 0.27 0.28 0.30 0.30 0.30 0.28 0.26 0.27 0.28 0.28 0.28 0.29 0.31 0.32
Wind_Speed
18 18 18 18 17 17 16 16 16 16 16 16 15 15 15 15 15 15 15 15 15 15 15 16 16 16 16 16 17 17 17 18 18 18 19 19 20 20 21 22 22 22
19 19 19 18 18 18 17 17 17 16 16 16 16 16 16 16 16 16 16 16 16 16 16 16 17 17 17 17 18 18 18 19 19 19 20 20 21 21 22 22 23 23
20 20 20 19 19 19 18 18 18 17 17 17 17 17 17 17 17 17 17 17 17 17 17 17 18 18 18 18 18 19 19 20 20 21 21 21 22 22 23 23 24 24
22 21 21 20 20 20 19 19 19 19 18 18 18 18 18 18 18 18 18 18 18 19 19 19 19 19 19 19 20 20 20 21 21 21 22 22 23 23 24 24 25 25
23 23 22 22 21 21 21 20 20 20 20 20 19 19 19 19 19 19 19 20 20 20 20 20 20 20 20 21 21 22 22 22 22 23 23 23 24 24 25 25 26 26
24 24 23 23 23 22 22 22 22 21 21 21 21 21 21 20 20 20 21 21 21 21 21 21 21 21 22 22 22 23 23 24 24 24 24 25 25 25 26 26 27 27
24 24 24 24 24 23 23 23 23 22 22 22 22 22 22 22 22 22 21 22 22 22 22 22 22 23 23 23 23 24 24 25 25 25 26 26 26 27 27 27 28 28
25 25 25 25 24 24 24 24 23 23 23 23 23 23 23 23 23 22 22 22 23 23 23 23 23 24 24 24 24 25 25 25 26 26 27 27 27 28 28 29 29 29
25 26 26 26 25 25 25 25 24 24 24 24 24 24 23 23 23 23 23 23 23 23 24 24 24 25 25 25 25 26 26 26 27 27 27 28 28 29 30 30 31 31
25 26 27 27 26 26 26 26 25 25 25 25 25 24 24 24 24 24 24 24 24 25 25 25 25 26 26 26 26 27 27 28 28 28 28 29 29 30 31 32 32 33
26 27 27 27 27 27 26 26 26 26 25 25 25 25 25 25 25 25 25 25 25 26 26 26 26 27 27 27 27 28 28 28 29 29 30 30 31 31 32 33 34 35
28 28 28 29 28 28 27 27 27 27 26 26 26 26 26 26 25 25 25 25 26 26 26 27 27 27 27 28 28 29 29 29 29 30 30 31 32 32 33 34 35 36
31 31 31 31 30 29 29 29 29 28 27 27 27 27 26 26 26 26 26 26 26 26 27 27 27 28 28 29 29 29 29 30 30 31 32 32 33 34 34 35 36 36
34 34 33 33 32 31 31 31 30 29 28 27 27 27 27 27 27 27 27 27 27 27 27 27 28 28 28 29 29 30 30 31 32 32 33 34 35 35 35 36 36 37
38 37 36 35 35 34 33 32 31 30 30 29 28 28 28 28 28 28 28 28 28 28 28 28 28 28 29 29 30 31 31 32 33 34 34 35 36 36 36 37 37 37
39 39 39 38 37 36 35 34 32 32 31 30 30 29 29 29 29 29 29 29 29 29 30 30 29 29 30 30 31 32 32 33 34 35 35 36 37 37 37 37 38 38
39 39 39 39 38 37 36 35 34 33 32 31 31 30 30 30 30 30 30 30 30 30 31 31 31 31 31 32 33 33 34 35 36 36 37 37 37 38 38 38 38 39
39 39 38 39 38 36 35 34 34 33 32 32 32 31 31 31 31 31 31 31 31 31 31 31 32 32 33 33 34 35 36 36 37 38 38 38 39 39 39 40 40 40
40 39 38 37 37 36 33 32 31 31 31 31 31 31 31 31 31 31 31 31 31 31 31 32 33 33 34 34 35 36 37 38 38 39 39 40 40 41 41 42 42 42
40 38 37 36 37 36 34 32 30 30 30 30 30 30 30 30 30 31 31 31 31 31 32 32 33 34 34 35 36 37 38 39 39 40 41 41 42 42 43 43 44 44
39 38 36 36 35 35 33 32 31 30 30 30 30 30 30 31 31 31 31 31 31 31 32 33 34 34 35 36 37 38 39 39 40 41 42 43 43 44 44 45 46 46
39 37 36 36 35 35 35 34 32 32 31 31 30 30 30 30 31 31 31 32 32 32 33 33 33 34 35 36 37 38 39 40 41 42 43 44 44 45 46 46 47 47
39 37 36 36 35 35 35 35 35 34 33 32 31 30 30 31 31 31 32 32 32 32 32 33 33 34 35 36 38 39 40 40 41 43 44 45 46 46 47 47 48 48
38 37 36 35 34 34 34 34 34 33 33 32 32 31 31 31 31 31 32 32 32 32 32 33 33 34 36 37 38 40 40 41 42 44 45 46 47 47 48 48 48 49
36 35 34 33 33 33 33 32 31 31 31 31 31 31 31 31 31 31 32 32 31 31 32 33 34 35 36 38 39 40 41 42 43 45 46 47 48 48 48 48 48 49
34 34 33 33 32 31 30 29 29 29 30 30 30 31 31 30 30 30 30 30 30 30 31 32 33 35 37 38 40 41 42 43 44 45 47 47 48 48 49 49 49 50
Wind_Direction
249 249 250 251 253 255 256 256 257 257 258 259 259 260 260 261 261 261 262 262 263 264 265 267 268 269 270 270 271 271 272 272 272 271 270 269 268 268 267 267 266 265
249 250 251 252 253 254 255 256 257 258 258 259 260 260 260 261 261 261 262 263 264 266 267 268 270 270 270 271 271 272 273 274 274 273 273 272 271 270 269 268 267 267
249 249 250 252 252 254 255 257 258 259 259 259 259 260 260 260 261 261 262 263 265 267 268 270 271 271 271 271 272 273 273 274 274 274 274 273 273 272 271 270 269 269
249 250 251 252 253 254 256 257 258 259 258 258 259 259 260 260 261 262 263 264 266 267 269 270 271 272 272 272 273 273 274 274 274 274 274 274 273 273 273 272 272 271
250 251 251 252 253 254 256 256 257 258 258 258 259 259 260 260 261 262 264 266 267 269 270 271 271 272 273 273 274 274 274 275 275 274 274 274 274 274 274 274 273 273
251 252 251 252 254 255 256 257 257 258 258 258 259 259 260 260 261 263 264 266 268 269 271 271 272 272 273 274 274 275 275 275 275 275 275 275 275 275 274 274 274 273
252 252 252 252 254 254 255 256 257 258 258 259 259 259 260 260 261 263 264 266 268 269 271 272 272 273 274 275 275 276 276 276 276 276 276 276 276 277 276 276 275 274
252 252 252 253 253 254 255 256 257 257 258 259 260 260 260 261 262 263 264 266 267 269 270 271 272 274 275 276 276 277 277 277 277 277 277 278 278 278 278 278 277 276
253 251 251 252 253 254 255 256 257 258 258 259 260 260 261 262 263 264 265 266 267 268 270 271 273 274 275 276 277 277 278 278 278 278 278 278 279 279 279 279 278 278
254 252 251 252 253 254 255 256 257 258 258 259 260 260 262 263 264 265 266 267 268 269 270 272 273 275 276 277 277 277 277 277 278 278 278 279 279 279 279 279 279 278
254 253 252 251 253 254 254 255 257 258 259 259 260 261 262 264 265 266 267 268 269 270 272 273 274 275 276 276 277 277 277 277 278 278 279 279 279 280 279 279 279 278
254 254 253 252 253 253 254 255 257 259 260 260 260 261 263 264 265 267 268 269 271 272 273 274 276 276 276 276 277 277 277 278 278 279 280 280 281 281 281 280 279 278
254 255 255 254 253 254 254 255 257 258 259 259 260 261 262 263 265 267 269 270 271 273 274 275 277 277 277 277 278 278 278 279 280 280 281 282 282 283 283 282 281 280
256 256 256 254 253 253 254 254 256 258 258 258 260 261 262 263 265 267 270 271 272 273 275 276 277 277 278 278 279 279 280 280 281 282 282 283 284 283 283 282 281 281
257 256 256 254 253 252 252 253 255 256 257 257 259 262 264 265 266 268 270 272 273 274 276 276 277 277 278 278 279 280 281 281 282 282 283 284 284 284 283 283 282 281
259 256 254 253 252 250 250 251 253 255 255 255 258 262 265 266 267 268 270 272 273 275 276 276 276 277 277 279 280 281 281 282 282 282 283 284 285 285 284 284 283 282
262 260 256 252 249 248 249 250 252 253 254 255 258 261 264 266 268 270 272 273 274 274 274 275 275 277 278 279 280 281 281 282 282 283 284 284 285 285 285 285 284 284
262 261 258 253 247 246 248 249 250 251 253 255 258 261 264 267 269 270 272 273 273 273 273 274 275 277 279 280 280 281 282 282 283 284 284 284 285 285 285 285 285 285
260 260 258 252 246 246 248 248 247 250 252 255 258 261 264 267 268 269 271 272 272 272 274 275 276 278 279 279 280 281 282 283 284 284 284 285 285 285 285 285 286 286
258 258 255 250 247 247 247 245 246 251 254 256 259 262 264 266 267 269 270 271 272 273 275 276 277 277 278 279 281 282 283 284 284 284 284 285 285 285 285 286 286 287
256 254 252 249 247 246 245 245 248 252 255 257 260 262 264 265 267 269 270 271 272 274 275 276 276 277 278 280 282 283 284 284 284 284 284 285 285 285 286 286 287 287
254 252 250 248 246 244 244 246 249 252 255 258 260 261 264 265 267 269 271 272 273 274 275 275 276 278 280 282 284 285 285 285 285 285 285 285 286 286 286 287 287 287
252 250 248 246 245 245 246 247 250 252 255 257 258 260 263 265 267 269 271 273 274 274 274 275 277 279 282 285 286 287 287 287 286 286 286 286 287 287 287 287 287 286
250 247 244 243 244 245 246 248 249 251 253 255 257 259 262 265 267 270 272 273 274 274 275 276 279 282 285 287 289 289 289 288 288 288 287 287 288 288 288 288 287 286
245 242 241 242 243 244 245 246 248 250 253 255 257 259 262 265 268 271 272 273 274 275 277 278 281 284 287 289 291 291 290 290 289 289 289 289 289 289 288 288 287 286
241 239 240 240 240 240 242 244 247 250 254 256 258 260 261 264 268 271 273 274 275 277 279 280 283 286 289 291 292 293 292 292 291 291 291 291 290 290 289 288 287 286